Location: Bjelajci
(45.0103°N, 16.1758°E)
Time: 19:46:25
(UTC+00:00)

Cosmos 1263 - Pass Details

Date: 14 July 2020
Orbit: 384 x 1341 km, 82.9° (Epoch: 06 August)

Event Time Altitude Azimuth Distance (km) Brightness Sun altitude
Rises 02:14:32 0° 347° (NNW) 2,299 8.5 -10.2°
Reaches altitude 10° 02:16:32 10° 342° (NNW) 1,420 7.3 -9.9°
Maximum altitude 02:19:27 52° 265° (W) 497 4.3 -9.5°
Drops below altitude 10° 02:22:30 10° 187° (S) 1,487 6.6 -9.2°
Enters shadow 02:23:08 - 185° (S) 1,766 7.0 -9.1°
